Other Public Products
Issued by NWS Grand Forks, ND

Home | Current Version | Previous Version | Graphics & Text | Print | Product List | Glossary On
Versions: 1 2 3 4 5 6 7 8 9 10 11 12 13 14 15 16 17 18 19 20 21 22 23 24 25 26 27 28 29 30 31 32 33 34 35 36 37 38 39 40 41 42 43 44 45 46 47 48 49 50
000
FPUS83 KFGF 270910
OPUFGF
PRAIRIE TO PINES WEATHER ROUNDUP
NATIONAL WEATHER SERVICE EASTERN NORTH DAKOTA/GRAND FORKS ND
300 AM CST FRI FEB 27 2015

 **SATELLITE DATA USED TO AUGMENT SKY COVER AT AUTOMATED STATIONS**
 *****  WEATHER ACROSS EASTERN NORTH DAKOTA  *****

CITY           SKY/WX    TMP DP  RH WIND       PRES   REMARKS
GRAND FORKS    CLEAR    -12 -18  74 SW3       30.46F
GRAND FORKS AF CLEAR     -9 -16  71 W6        30.45F WCI -22
GRAND CITY NWS   N/A     -9 N/A N/A W3          N/A
BUXTON         NOT AVBL
DEVILS LAKE    CLEAR    N/A N/A N/A MISG        N/A
FARGO          CLEAR     -7 -13  75 SW5       30.49F WCI -18
WAHPETON ARPT  SUNNY     -8 -15  71 SW5       30.51S WCI -19
$$

 *****  WEATHER ACROSS CENTRAL AND WESTERN NORTH DAKOTA  *****

CITY           SKY/WX    TMP DP  RH WIND       PRES   REMARKS
JAMESTOWN      PTCLDY    -9 -15  75 W9        30.43F WCI -26
BISMARCK       CLEAR     -8 -13  78 CALM      30.45F
MINOT          MOCLDY    -9 -15  75 SW10      30.38F WCI -27
MINOT AFB      MOCLDY   -14 -19  76 CALM      30.39F
GARRISON         N/A    -15 -21  74 CALM      30.40F
WILLISTON      PTCLDY   -14 -19  79 CALM      30.36F
DICKINSON      CLEAR     -5 -11  75 S7        30.30F WCI -19
HETTINGER      CLEAR     -3  -9  75 S6        30.34F WCI -15
$$

 *****  OTHER OBSERVATIONS NORTHEAST NORTH DAKOTA  *****

CITY           SKY/WX    TMP DP  RH WIND       PRES   REMARKS
WALHALLA         N/A     -2 -11  65 W6        30.42S WCI -14
LANGDON        NOT AVBL
CAVALIER       FAIR      -2  -9  71 W7        30.42S WCI -16
GRAFTON        NOT AVBL
CANDO          FAIR     -11 -17  77 W8        30.41F WCI -28
FORT TOTTEN      N/A    -10 -17  72 CALM      29.95S
ROLLA          FAIR      -8 -15  71 W6        30.36F WCI -21
RUGBY          FAIR     -13 -18  77 SW8       30.41F WCI -30
 ***** THE ABOVE OBSERVATIONS ARE NON NWS ARE NOT QUALITY
        CONTROLLED AND MAY MIS-REPORT RAIN FOR SNOW...
$$

 *****  OTHER OBSERVATIONS SOUTHEAST NORTH DAKOTA *****

CITY           SKY/WX    TMP DP  RH WIND       PRES   REMARKS
COOPERSTOWN    NOT AVBL
VALLEY CITY    FAIR      -8 -13  77 W10       30.44F WCI -26
OAKES            N/A     -8 -13  77 W6        30.48S WCI -21
GWINNER        SUNNY     -2  -9  71 W10       30.48F WCI -19
BUFFALO        NOT AVBL
WYNDMERE         N/A     -9 -15  77 W7          N/A  WCI -24
 ***** THE ABOVE OBSERVATIONS ARE NON NWS ARE NOT QUALITY
       CONTROLLED AND MAY MIS-REPORT RAIN FOR SNOW...
$$

  *****  WEATHER ACROSS NORTHERN MINNESOTA  *****

CITY           SKY/WX    TMP DP  RH WIND       PRES   REMARKS
FLAG ISLAND    PTCLDY    -8 -13  77 CALM      30.35S
WARROAD        PTCLDY    -8 -15  71 SW5       30.38S WCI -19
ROSEAU         MOCLDY    -9 -15  77 SW8       30.39S WCI -26
HALLOCK        NOT AVBL
THF RVR FALLS  PTCLDY    -9 -18  64 SW5       30.41F WCI -21
HALSTAD        NOT AVBL
FOSSTON        FAIR     -17 -20  83 S5        30.42F WCI -29
BAUDETTE       PTCLDY   -11 -16  78 W5        30.35F WCI -23
WASKISH        PTCLDY    -8 -11  84 SW7       30.39S WCI -22
CROOKSTON      PTCLDY   -15 -18  84 S6        30.47S WCI -29
$$
  *****  WEATHER ACROSS CENTRAL AND WEST MINNESOTA  *****

CITY           SKY/WX    TMP DP  RH WIND       PRES   REMARKS
BEMIDJI        PTCLDY   -10 -15  81 W5        30.39S WCI -22
PARK RAPIDS    CLEAR     -9 -13  83 CALM      30.39F
WADENA         CLEAR     -9 -15  77 W3        30.43S
DETROIT LAKES  PTCLDY    -6  -9  84 CALM      30.43F
MOORHEAD       CLEAR     -8 -11  84 SW6       30.49F WCI -21
FERGUS FALLS   CLEAR     -8 -15  71 CALM      30.52S
ELBOW LAKE     FAIR     -10 -13  83 W7        30.47S WCI -24
MORRIS MN      CLEAR     -9 -15  77 W3        30.49S
STAPLES        CLEAR     -9 -15  77 W5        30.43S WCI -21
WHEATON        CLEAR     -9 -15  77 SW6       30.53S WCI -23
$$
  *****  WEATHER ELSEWHERE ACROSS MINNESOTA  *****

CITY           SKY/WX    TMP DP  RH WIND       PRES   REMARKS
DULUTH         PTCLDY    -7 -14  71 W10       30.34F WCI -25
INTRNTL FALLS  PTCLDY   -13 -18  78 SW3       30.36S
ELY            PTCLDY   -15 -18  84 CALM      30.33S
CLOQUET        CLEAR     -6 -13  71 W9        30.37F WCI -22
BRAINERD       CLEAR     -8 -13  78 CALM      30.44S
HIBBING        PTCLDY   -13 -18  78 CALM      30.36S
ALEXANDRIA     CLEAR     -8 -12  83 W7        30.45R WCI -23
SAINT CLOUD    CLEAR     -6 -10  83 W3        30.48S
MINNEAPOLIS    CLEAR     -1  -9  68 W6        30.51S WCI -13
$$

  *****  WEATHER ACROSS SOUTH DAKOTA  *****

CITY           SKY/WX    TMP DP  RH WIND       PRES   REMARKS
SIOUX FALLS    CLEAR     -8 -14  74 CALM      30.52F
BROOKINGS      NOT AVBL
WATERTOWN      PTCLDY   -11 -16  78 S6        30.45S WCI -25
HURON          PTCLDY   -11 -16  78 W3        30.54S
SISSETON         N/A     -7 -12  79 CALM      30.49S
ABERDEEN       CLEAR    -15 -20  78 W6        30.51S WCI -29
MITCHELL       CLEAR     -4 -10  75 SW5       30.56F WCI -15
PIERRE         CLEAR     -2  -7  79 SW5       30.48F WCI -12
MOBRIDGE       CLEAR    -11 -16  78 CALM      30.43F
RAPID CITY     PTCLDY    -4  -9  79 SE5       30.30F WCI -15
$$

  *****  SOME WEATHER IN NEARBY STATES *****

CITY           SKY/WX    TMP DP  RH WIND       PRES   REMARKS
GLASGOW MT     CLEAR      2  -5  72 SE13      30.23F WCI -15
GREAT FALLS MT PTCLDY    11   4  73 S8        29.95F WCI  -1
CHEYENNE WY    CLOUDY     3  -2  79 SE10      30.00F WCI -12
SCOTTSBLUFF NE CLOUDY     8   0  69 SE16      30.24F WCI -10
OMAHA NE       CLEAR      2  -4  76 CALM      30.61S
DES MOINES IA  CLEAR     -5 -11  75 W6        30.57S WCI -18
DAVENPORT IA   CLEAR    -16 -22  74 W9        30.53R WCI -35
CHICAGO IL     CLEAR      0  -8  69 NW10      30.45R WCI -16
EAU CLAIRE WI  CLEAR     -5 -13  68 W5        30.46S WCI -16
LA CROSSE WI   CLEAR     -5 -10  79 SE3       30.52R
$$

  *****  SOME NATIONAL WEATHER *****

CITY           SKY/WX    TMP DP  RH WIND       PRES   REMARKS
LA GUARDIA NY  CLOUDY    21   8  57 NW7       30.24R WCI  12
RALEIGH NC     PTCLDY    27  25  92 CALM      30.20S FOG
ATLANTA GA     PTCLDY    32  26  78 NW7       30.21R
NEW ORLEANS LA CLOUDY    38  31  76 N13       30.33R
OKLAHOMA CITY  CLOUDY    21   0  39 NE18      30.46F WCI   6
ALBUQUERQUE NM LGT SNOW  23  18  81 E20       29.97R WCI   8
SALT LAKE CITY PTCLDY    29  27  92 S5        29.88S WCI  24
LOS ANGELES CA PTCLDY    54  51  90 CALM      29.84S
BOISE ID       CLOUDY    37  32  82 S3        29.86F
SEATTLE WA     RAIN      48  45  89 E3        29.78F
$$

*** WEATHER ACROSS MANITOBA...SASKATCHEWAN AND ONTARIO ***
                ***ONTARIO***

CITY           SKY/WX    TMP DP  RH WIND       PRES   REMARKS
GERALDTON      CLEAR     -8 -13  77 W8        30.16S WCI -23
THUNDER BAY    CLEAR     -6 -15  65 W6        30.34F WCI -18
SIOUX LOOKOUT  PTCLDY   -20 -26  76 S2        30.25S
TORONTO        PTCLDY    -2  -9  71 W7        30.32F WCI -16
BIG TROUT LK   CLEAR      0  -9  65 W10       29.99F WCI -17
PICKLE LAKE    NOT AVBL
DRYDEN         CLEAR     -9 -15  77 W8        30.27S WCI -26
KENORA         CLEAR     -8 -13  77 W9        30.30F WCI -25
$$
                *** MANITOBA***

CITY           SKY/WX    TMP DP  RH WIND       PRES   REMARKS
BRANDON        CLEAR    -13 -18  77 W13       30.38F WCI -34
DAUPHIN        CLEAR      1  -9  60 W15G21    30.35F WCI -18
ISLAND LAKE    PTCLDY     0 -13  55 SW10      30.11F WCI -17
PILOT MOUND      N/A    -15 -18  84 SW9         N/A  WCI -33
THE PAS        CLOUDY     0 -11  60 W14       30.20F WCI -19
THOMPSON       MOCLDY     7  -8  51 W12       29.99F WCI  -9
WINNIPEG       CLEAR     -6 -15  65 W12       30.40F WCI -24
LYNN LAKE      MOCLDY     5  -2  72 W10       29.97S WCI -10
CHURCHILL      CRYSTALS   0  -6  78 NW15      29.84F WCI -20
GILLAM         PTCLDY     7  -8  51 W15       29.91F WCI -11
$$
                ***SASKATCHEWAN***

CITY           SKY/WX    TMP DP  RH WIND       PRES   REMARKS
ESTEVAN        NOT AVBL
KINDERSLEY     NOT AVBL
LLOYDMINSTER   MOCLDY    -4  -9  77 SW10      30.11F WCI -21
PRINCE ALBERT  PTCLDY   -13 -17  84 SW6       30.25F WCI -27
REGINA         CLEAR    -15 -20  76 SE9       30.30F WCI -33
YORKTON        CLEAR    -13 -18  77 S8        30.31F WCI -30


USA.gov is the U.S. government's official web portal to all federal, state and local government web resources and services.